Langley AFB, VA

7:30 PM EDT on April 25, 2017 (GMT -0400)
Langley Air Force Base

Weather History for KLFI - April, 2013

Change the Weather History Date:

Friday, April 26, 2013

  Actual Average Record
Temperature  
Mean Temperature 53 °F -  
Max Temperature 65 °F 67 °F 95 °F (1960)
Min Temperature 42 °F 49 °F 37 °F (1934)
Degree Days  
Heating Degree Days 12    
Growing Degree Days 3 (Base 50)    
Moisture  
Dew Point 41 °F    
Average Humidity 70    
Maximum Humidity 93    
Minimum Humidity 36    
Precipitation  
Precipitation 0.00 in - - ()
Sea Level Pressure  
Sea Level Pressure 30.38 in    
Wind  
Wind Speed 4 mph (ENE)    
Max Wind Speed 12 mph    
Max Gust Speed -    
Visibility 9 miles    
Events      
Averages and records for this station are not official NWS values.
T = Trace of Precipitation, MM = Missing Value Source: NWS Daily Summary

Daily Weather History Graph

Daily Weather History Graph

Search for Another Location

Airport or City:

Trip Planner

Search our weather history database for the weather conditions in past years. The results will help you decide how hot, cold, wet, or windy it might be!

Date:

Astronomy

Apr. 26, 2013 Rise Set
Actual Time 6:16 AM EDT 7:50 PM EDT
Civil Twilight 5:49 AM EDT 8:17 PM EDT
Nautical Twilight 5:15 AM EDT 8:51 PM EDT
Astronomical Twilight 4:40 AM EDT 9:26 PM EDT
Moon 9:08 PM EDT (4/26) 6:43 AM EDT (4/26)
Length of Visible Light 14h 28m
Length of Day
13h 33m
Full, 99% of the Moon is Illuminated
Apr 26
Full
May 2
Last Quarter
May 9
New
May 18
First Quarter
May 25
Full

Hourly Weather History & Observations

Time (EDT) Temp. Windchill Dew Point Humidity Pressure Visibility Wind Dir Wind Speed Gust Speed Precip Events Conditions
12:55 AM 47.5 °F - 42.3 °F 82% 30.31 in 10.0 mi SSE 5.8 mph - N/A   Clear
1:55 AM 43.3 °F 41.7 °F 39.9 °F 88% 30.31 in 10.0 mi WSW 3.5 mph - N/A   Clear
2:32 AM 42.8 °F - 41.0 °F 93% 30.31 in 9.0 mi Calm Calm - N/A   Clear
2:35 AM 42.8 °F - 41.0 °F 93% 30.31 in 9.0 mi Calm Calm - N/A   Clear
2:46 AM 42.8 °F 41.1 °F 41.0 °F 93% 30.31 in 9.0 mi West 3.5 mph - N/A   Clear
2:55 AM 43.0 °F - 40.3 °F 90% 30.31 in 8.0 mi Calm Calm - N/A   Clear
3:03 AM 44.6 °F - 41.0 °F 87% 30.31 in 8.0 mi Calm Calm - N/A   Clear
3:55 AM 42.8 °F - 39.6 °F 88% 30.32 in 10.0 mi Calm Calm - N/A   Clear
4:55 AM 44.6 °F 43.1 °F 40.8 °F 87% 30.36 in 9.0 mi NW 3.5 mph - N/A   Clear
4:59 AM 44.6 °F 42.2 °F 41.0 °F 87% 30.36 in 9.0 mi NW 4.6 mph - N/A   Clear
5:17 AM 44.6 °F 42.2 °F 41.0 °F 87% 30.37 in 9.0 mi NW 4.6 mph - N/A   Clear
5:55 AM 44.4 °F - 40.8 °F 87% 30.37 in 7.0 mi Calm Calm - N/A   Clear
6:03 AM 42.8 °F - 39.2 °F 87% 30.37 in 7.0 mi Calm Calm - N/A   Clear
6:55 AM 42.6 °F - 39.2 °F 88% 30.39 in 5.0 mi Calm Calm - N/A   Clear
7:55 AM 50.2 °F - 45.1 °F 83% 30.41 in 10.0 mi WNW 4.6 mph - N/A   Partly Cloudy
8:55 AM 56.3 °F - 41.2 °F 57% 30.41 in 10.0 mi NNW 3.5 mph - N/A   Clear
9:55 AM 60.8 °F - 34.9 °F 38% 30.43 in 10.0 mi Calm Calm - N/A   Clear
10:55 AM 62.6 °F - 37.6 °F 40% 30.45 in 10.0 mi NNE 11.5 mph - N/A   Partly Cloudy
11:55 AM 63.0 °F - 44.1 °F 50% 30.45 in 10.0 mi NE 11.5 mph - N/A   Clear
12:55 PM 62.8 °F - 46.6 °F 55% 30.42 in 10.0 mi NE 11.5 mph - N/A   Clear
1:55 PM 63.5 °F - 43.9 °F 49% 30.41 in 10.0 mi NE 10.4 mph - N/A   Partly Cloudy
2:55 PM 64.0 °F - 39.2 °F 40% 30.41 in 10.0 mi NE 5.8 mph - N/A   Clear
3:55 PM 64.8 °F - 37.2 °F 36% 30.41 in 10.0 mi ENE 11.5 mph - N/A   Clear
4:55 PM 63.7 °F - 44.8 °F 50% 30.39 in 10.0 mi ENE 10.4 mph - N/A   Clear
5:55 PM 61.7 °F - 43.3 °F 51% 30.38 in 10.0 mi East 9.2 mph - N/A   Clear
6:55 PM 57.2 °F - 44.2 °F 62% 30.39 in 10.0 mi ESE 9.2 mph - N/A   Clear
7:55 PM 56.7 °F - 43.3 °F 61% 30.39 in 10.0 mi SE 4.6 mph - N/A   Clear
8:55 PM 56.3 °F - 43.3 °F 62% 30.42 in 10.0 mi SE 5.8 mph - N/A   Clear
10:34 PM 51.8 °F - 42.8 °F 71% 30.42 in 10.0 mi SSE 3.5 mph - N/A   Clear
10:55 PM 51.6 °F - 41.0 °F 67% 30.43 in 10.0 mi SSE 3.5 mph - N/A   Clear
11:55 PM 50.2 °F - 40.3 °F 69% 30.42 in 10.0 mi SSE 3.5 mph - N/A   Clear